AUR40LC EGJB-EGLC

Flight info

Callsign AUR40LC
Flight time N/A
Altitude 17000
Route GULDA G271 BENIX G27 NEVIL
Aircraft AT76/M-SDFGIRY/S

Departure

Time 2026-04-25 20:17
Airport Guernsey Airport (EGJB)

Arrival

Time N/A
Airport London City Airport (EGLC)
Time Latitude Longitude Altitude Speed Heading
2026-04-25 19:53 49.43279 -2.59563 336 ft 0 kts 177°
2026-04-25 20:06 49.43294 -2.59565 335 ft 4 kts 177°
2026-04-25 20:06 49.43315 -2.59566 336 ft 4 kts 173°
2026-04-25 20:07 49.43337 -2.59566 332 ft 4 kts 206°
2026-04-25 20:07 49.43357 -2.59543 335 ft 4 kts 240°
2026-04-25 20:07 49.43365 -2.59507 336 ft 2 kts 267°
2026-04-25 20:07 49.43365 -2.59504 336 ft 0 kts 267°
2026-04-25 20:13 49.43364 -2.59517 336 ft 5 kts 267°
2026-04-25 20:13 49.43362 -2.59601 336 ft 10 kts 267°
2026-04-25 20:13 49.43358 -2.59721 336 ft 14 kts 266°
2026-04-25 20:14 49.43344 -2.59883 336 ft 16 kts 268°
2026-04-25 20:14 49.43340 -2.60051 336 ft 16 kts 268°
2026-04-25 20:14 49.43335 -2.60218 336 ft 16 kts 268°
2026-04-25 20:14 49.43330 -2.60383 336 ft 15 kts 268°
2026-04-25 20:15 49.43327 -2.60550 336 ft 18 kts 268°
2026-04-25 20:15 49.43345 -2.60752 335 ft 19 kts 280°
2026-04-25 20:15 49.43366 -2.60939 336 ft 18 kts 277°
2026-04-25 20:15 49.43360 -2.61128 336 ft 17 kts 268°
2026-04-25 20:16 49.43383 -2.61299 335 ft 16 kts 314°
2026-04-25 20:16 49.43457 -2.61349 342 ft 10 kts 27°
2026-04-25 20:16 49.43467 -2.61280 349 ft 6 kts 88°
2026-04-25 20:16 49.43469 -2.61226 352 ft 5 kts 88°
2026-04-25 20:17 49.43478 -2.60880 344 ft 63 kts 87°
2026-04-25 20:17 49.43506 -2.59897 348 ft 118 kts 87°
2026-04-25 20:17 49.43568 -2.58572 730 ft 130 kts 83°
2026-04-25 20:17 49.43676 -2.57176 1369 ft 132 kts 82°
2026-04-25 20:18 49.43861 -2.55824 2004 ft 136 kts 74°
2026-04-25 20:18 49.44010 -2.54331 2523 ft 145 kts 82°
2026-04-25 20:18 49.44190 -2.52803 3065 ft 153 kts 76°
2026-04-25 20:18 49.44490 -2.51067 3031 ft 182 kts 72°
2026-04-25 20:19 49.44874 -2.49097 3031 ft 201 kts 73°
2026-04-25 20:19 49.45234 -2.46931 3083 ft 214 kts 76°
2026-04-25 20:19 49.45508 -2.44746 3547 ft 206 kts 79°
2026-04-25 20:19 49.45731 -2.42568 3858 ft 207 kts 80°
2026-04-25 20:20 49.45941 -2.40379 4171 ft 208 kts 80°
2026-04-25 20:20 49.46159 -2.38181 4477 ft 208 kts 80°
2026-04-25 20:20 49.46374 -2.36028 4984 ft 199 kts 80°
2026-04-25 20:20 49.46583 -2.33956 5398 ft 196 kts 81°
2026-04-25 20:21 49.46721 -2.32584 5619 ft 196 kts 81°
2026-04-25 20:21 49.46930 -2.30510 5959 ft 197 kts 81°
2026-04-25 20:21 49.47142 -2.28417 6305 ft 198 kts 81°
2026-04-25 20:21 49.47353 -2.26318 6622 ft 199 kts 81°
2026-04-25 20:22 49.47599 -2.24220 6919 ft 200 kts 71°
2026-04-25 20:22 49.47971 -2.22897 7079 ft 200 kts 65°
2026-04-25 20:22 49.48718 -2.20294 7456 ft 202 kts 66°
2026-04-25 20:22 49.49277 -2.18311 7759 ft 203 kts 66°
2026-04-25 20:23 49.49837 -2.16317 8052 ft 204 kts 67°
2026-04-25 20:23 49.50398 -2.14312 8334 ft 204 kts 66°
2026-04-25 20:23 49.50961 -2.12302 8620 ft 205 kts 66°
2026-04-25 20:23 49.51525 -2.10278 8903 ft 206 kts 66°
2026-04-25 20:24 49.52093 -2.08247 9190 ft 207 kts 66°
2026-04-25 20:24 49.52662 -2.06205 9474 ft 208 kts 67°
2026-04-25 20:24 49.53233 -2.04156 9756 ft 209 kts 67°
2026-04-25 20:24 49.53807 -2.02102 10027 ft 209 kts 66°
2026-04-25 20:25 49.54381 -2.00038 10275 ft 210 kts 67°
2026-04-25 20:25 49.54959 -1.97959 10515 ft 211 kts 67°
2026-04-25 20:25 49.55538 -1.95874 10734 ft 212 kts 67°
2026-04-25 20:25 49.56118 -1.93780 10973 ft 213 kts 66°
2026-04-25 20:26 49.56703 -1.91672 11218 ft 214 kts 66°
2026-04-25 20:26 49.57288 -1.89555 11448 ft 215 kts 66°
2026-04-25 20:26 49.57867 -1.87458 11680 ft 216 kts 66°
2026-04-25 20:26 49.58457 -1.85324 11904 ft 217 kts 66°
2026-04-25 20:27 49.59048 -1.83184 12128 ft 218 kts 66°
2026-04-25 20:27 49.59649 -1.81002 12352 ft 219 kts 66°
2026-04-25 20:27 49.60237 -1.78869 12567 ft 220 kts 66°
2026-04-25 20:27 49.60833 -1.76702 12790 ft 220 kts 67°
2026-04-25 20:28 49.61430 -1.74516 13047 ft 221 kts 66°
2026-04-25 20:28 49.62030 -1.72328 13283 ft 222 kts 66°
2026-04-25 20:28 49.62636 -1.70129 13512 ft 223 kts 66°
2026-04-25 20:28 49.63242 -1.67924 13762 ft 224 kts 66°
2026-04-25 20:29 49.63850 -1.65706 13983 ft 225 kts 66°
2026-04-25 20:29 49.64459 -1.63477 14171 ft 226 kts 66°
2026-04-25 20:29 49.65073 -1.61238 14374 ft 227 kts 66°
2026-04-25 20:29 49.65686 -1.58999 14552 ft 228 kts 66°
2026-04-25 20:30 49.66304 -1.56738 14727 ft 228 kts 65°
2026-04-25 20:30 49.66924 -1.54473 14903 ft 229 kts 66°
2026-04-25 20:30 49.67544 -1.52201 15079 ft 230 kts 66°
2026-04-25 20:30 49.68163 -1.49924 15239 ft 231 kts 66°
2026-04-25 20:31 49.68784 -1.47640 15410 ft 231 kts 65°
2026-04-25 20:31 49.69410 -1.45336 15585 ft 232 kts 65°
2026-04-25 20:31 49.70034 -1.43036 15767 ft 233 kts 66°
2026-04-25 20:31 49.70662 -1.40714 15944 ft 234 kts 65°
2026-04-25 20:32 49.71291 -1.38390 16091 ft 235 kts 65°
2026-04-25 20:32 49.71923 -1.36057 16216 ft 236 kts 65°
2026-04-25 20:32 49.72556 -1.33723 16364 ft 236 kts 65°
2026-04-25 20:32 49.73191 -1.31374 16494 ft 237 kts 65°
2026-04-25 20:33 49.73826 -1.29022 16624 ft 237 kts 65°
2026-04-25 20:33 49.74461 -1.26667 16760 ft 238 kts 65°
2026-04-25 20:33 49.75098 -1.24297 16909 ft 239 kts 65°
2026-04-25 20:33 49.75518 -1.22730 17008 ft 239 kts 65°
2026-04-25 20:34 49.76376 -1.19538 17156 ft 243 kts 65°
2026-04-25 20:34 49.77029 -1.17107 17186 ft 247 kts 65°
2026-04-25 20:34 49.77693 -1.14635 17205 ft 251 kts 65°
2026-04-25 20:34 49.78366 -1.12118 17215 ft 255 kts 65°
2026-04-25 20:35 49.79047 -1.09574 17225 ft 258 kts 65°
2026-04-25 20:35 49.79721 -1.07028 17219 ft 260 kts 67°
2026-04-25 20:35 49.80300 -1.04363 17227 ft 263 kts 70°
2026-04-25 20:35 49.80837 -1.01645 17229 ft 265 kts 71°
2026-04-25 20:36 49.81388 -0.98879 17224 ft 266 kts 70°
2026-04-25 20:36 49.81964 -0.96154 17220 ft 267 kts 69°
2026-04-25 20:36 49.82555 -0.93421 17221 ft 268 kts 69°
2026-04-25 20:36 49.83140 -0.90721 17226 ft 268 kts 69°
2026-04-25 20:37 49.83732 -0.87974 17227 ft 269 kts 69°
2026-04-25 20:37 49.84324 -0.85230 17222 ft 269 kts 69°
2026-04-25 20:37 49.84917 -0.82480 17221 ft 270 kts 69°
2026-04-25 20:37 49.85510 -0.79723 17229 ft 270 kts 69°
2026-04-25 20:38 49.86106 -0.76960 17224 ft 270 kts 69°
2026-04-25 20:38 49.86698 -0.74198 17224 ft 270 kts 69°
2026-04-25 20:38 49.87291 -0.71438 17222 ft 270 kts 69°
2026-04-25 20:38 49.87882 -0.68677 17226 ft 270 kts 69°
2026-04-25 20:39 49.88473 -0.65912 17224 ft 270 kts 69°
2026-04-25 20:39 49.89063 -0.63145 17228 ft 270 kts 69°
2026-04-25 20:39 49.89652 -0.60380 17224 ft 270 kts 69°
2026-04-25 20:39 49.90049 -0.58515 17231 ft 270 kts 69°
2026-04-25 20:40 49.90829 -0.54852 17228 ft 270 kts 69°
2026-04-25 20:40 49.91416 -0.52084 17235 ft 270 kts 69°
2026-04-25 20:40 49.92003 -0.49314 17232 ft 270 kts 69°
2026-04-25 20:40 49.92607 -0.46560 17222 ft 268 kts 64°
2026-04-25 20:41 49.93691 -0.44288 17231 ft 261 kts 41°
2026-04-25 20:41 49.95088 -0.42511 17226 ft 259 kts 34°
2026-04-25 20:41 49.96548 -0.40866 17232 ft 259 kts 33°
2026-04-25 20:41 49.98011 -0.39222 17228 ft 260 kts 33°
2026-04-25 20:42 49.99467 -0.37538 17235 ft 261 kts 34°
2026-04-25 20:42 50.00905 -0.35816 17234 ft 261 kts 35°
2026-04-25 20:42 50.02336 -0.34063 17232 ft 262 kts 35°
2026-04-25 20:42 50.03772 -0.32318 17233 ft 262 kts 35°
2026-04-25 20:43 50.05209 -0.30568 17234 ft 262 kts 35°
2026-04-25 20:43 50.06647 -0.28817 17246 ft 263 kts 35°
2026-04-25 20:43 50.08086 -0.27067 17236 ft 263 kts 35°
2026-04-25 20:43 50.09529 -0.25308 17233 ft 263 kts 36°
2026-04-25 20:44 50.10966 -0.23554 17233 ft 263 kts 35°
2026-04-25 20:44 50.12406 -0.21798 17235 ft 263 kts 35°
2026-04-25 20:44 50.13852 -0.20038 17236 ft 263 kts 35°
2026-04-25 20:44 50.15263 -0.18234 17234 ft 262 kts 44°
2026-04-25 20:45 50.16301 -0.15874 17234 ft 266 kts 57°
2026-04-25 20:45 50.17197 -0.13339 17237 ft 267 kts 59°
2026-04-25 20:45 50.17789 -0.11653 17236 ft 268 kts 58°
2026-04-25 20:45 50.19039 -0.08294 17236 ft 267 kts 56°
2026-04-25 20:46 50.20024 -0.05829 17236 ft 267 kts 55°
2026-04-25 20:46 50.21006 -0.03371 17234 ft 268 kts 55°
2026-04-25 20:46 50.21986 -0.00896 17233 ft 268 kts 55°
2026-04-25 20:46 50.22967 0.01581 17236 ft 268 kts 56°
2026-04-25 20:47 50.23948 0.04057 17233 ft 268 kts 56°
2026-04-25 20:47 50.24924 0.06535 17233 ft 268 kts 56°
2026-04-25 20:47 50.25906 0.09023 17238 ft 269 kts 56°
2026-04-25 20:47 50.26886 0.11509 17235 ft 269 kts 56°
2026-04-25 20:48 50.27864 0.13996 17237 ft 269 kts 56°
2026-04-25 20:48 50.28844 0.16483 17237 ft 269 kts 56°
2026-04-25 20:48 50.29823 0.18976 17238 ft 269 kts 56°
2026-04-25 20:48 50.30801 0.21470 17236 ft 269 kts 56°
2026-04-25 20:49 50.31782 0.23968 17239 ft 269 kts 56°
2026-04-25 20:49 50.33408 0.28118 17242 ft 269 kts 56°
2026-04-25 20:49 50.34706 0.31434 17239 ft 269 kts 56°
2026-04-25 20:50 50.35693 0.33962 17235 ft 269 kts 56°
2026-04-25 20:50 50.36668 0.36463 17237 ft 269 kts 56°
2026-04-25 20:50 50.37646 0.38967 17237 ft 269 kts 56°
2026-04-25 20:50 50.38621 0.41472 17237 ft 269 kts 56°
2026-04-25 20:51 50.39597 0.43974 17237 ft 269 kts 56°
2026-04-25 20:51 50.40562 0.46460 17237 ft 269 kts 56°
2026-04-25 20:51 50.41558 0.48981 17238 ft 269 kts 55°
2026-04-25 20:51 50.42578 0.51446 17240 ft 269 kts 54°
2026-04-25 20:52 50.43598 0.53903 17239 ft 269 kts 54°
2026-04-25 20:52 50.44277 0.55545 17236 ft 269 kts 54°
2026-04-25 20:52 50.45633 0.58840 17240 ft 269 kts 54°
2026-04-25 20:52 50.46651 0.61311 17239 ft 269 kts 54°
2026-04-25 20:53 50.47655 0.63746 17239 ft 269 kts 54°
2026-04-25 20:53 50.48684 0.66247 17235 ft 269 kts 54°
2026-04-25 20:53 50.50715 0.71193 17236 ft 269 kts 54°
2026-04-25 20:54 50.51718 0.73633 17236 ft 269 kts 54°
2026-04-25 20:54 50.52731 0.76108 17237 ft 269 kts 55°
2026-04-25 20:54 50.53742 0.78586 17236 ft 269 kts 54°
2026-04-25 20:54 50.54756 0.81061 17235 ft 269 kts 55°
2026-04-25 20:55 50.55439 0.82733 17238 ft 269 kts 55°
2026-04-25 20:55 50.56793 0.86055 17240 ft 269 kts 54°
2026-04-25 20:55 50.57806 0.88534 17238 ft 269 kts 54°
2026-04-25 20:55 50.58804 0.90980 17242 ft 269 kts 55°
2026-04-25 20:56 50.59888 0.93355 17237 ft 265 kts 41°
2026-04-25 20:56 50.61359 0.95116 17239 ft 261 kts 31°
2026-04-25 20:56 50.62874 0.96616 17240 ft 261 kts 29°
2026-04-25 20:56 50.64414 0.98132 17241 ft 262 kts 30°
2026-04-25 20:57 50.65940 0.99721 17239 ft 263 kts 32°
2026-04-25 20:57 50.67443 1.01367 17236 ft 264 kts 32°
2026-04-25 20:57 50.68946 1.03012 17235 ft 264 kts 32°
2026-04-25 20:57 50.70457 1.04661 17235 ft 264 kts 32°
2026-04-25 20:58 50.71983 1.06330 17097 ft 270 kts 32°
2026-04-25 20:58 50.73540 1.08033 16964 ft 274 kts 32°
2026-04-25 20:58 50.75123 1.09765 16781 ft 279 kts 32°
2026-04-25 20:58 50.76732 1.11531 16602 ft 283 kts 32°
2026-04-25 20:59 50.78354 1.13308 16425 ft 286 kts 32°
2026-04-25 20:59 50.79997 1.15112 16206 ft 290 kts 33°
2026-04-25 20:59 50.81661 1.16939 15946 ft 293 kts 32°
2026-04-25 20:59 50.83343 1.18786 15698 ft 296 kts 33°
2026-04-25 21:00 50.85039 1.20655 15451 ft 298 kts 33°
2026-04-25 21:00 50.85613 1.21286 15367 ft 298 kts 33°
2026-04-25 21:00 50.90168 1.26308 14722 ft 301 kts 33°
2026-04-25 21:01 50.90748 1.26951 14641 ft 301 kts 33°